sat.trackr.live / text

‹ back to catalog

ONEWEB-0230

NORAD 48769 · 2021-045C

PAYLOAD ACTIVE UNKNOWN

§ Identity

Operator
Country
UK
Launch date
2021-05-28
Launch site
VOSTO
Launch vehicle
Mass (kg)
RCS (m²)

Purposes: comms

External: N2YO · Heavens-Above · Gunter

§ Orbital elements

Epoch: 2026-09-14T09:07:11.047872Z

Period
109.46 min
Inclination
87.8979°
Eccentricity
0.0002117
Mean motion
13.15547853 rev/d
Perigee alt
1,200.2 km
Apogee alt
1,203.4 km
Semi-major
7,579.9 km
B*
-2.6133e-4
RAAN
241.4192°
Arg perigee
88.5730°
Mean anomaly
271.5643°
Rev number
25,639

§ Raw data

ONEWEB-02301 48769U 21045C   26257.37998898 -.00000086  00000+0 -26133-3 0  99922 48769  87.8979 241.4192 0002117  88.5730 271.5643 13.15547853256394

JSON: /api/v1/satellites/48769 · /tle

For live sub-satellite position, see the globe view (requires WebGL).

§ Visibility from observer

Set your observer location to see the next 7 days of passes ≥ 10°. The values pass through the URL so the page stays shareable.

No JS? Fill the form by hand. The geolocation button needs JavaScript.